TimeCDT,TemperatureF,Dew PointF,Humidity,Sea Level PressureIn,VisibilityMPH,Wind Direction,Wind SpeedMPH,Gust SpeedMPH,PrecipitationIn,Events,Conditions,WindDirDegrees,DateUTC
12:53 AM,72.0,70.0,93,30.00,10.0,SSE,4.6,-,N/A,,Clear,160,2013-05-19 05:53:00
1:53 AM,72.0,70.0,93,29.99,10.0,SE,4.6,-,N/A,,Scattered Clouds,140,2013-05-19 06:53:00
2:02 AM,71.6,69.8,94,30.00,10.0,SE,3.5,-,N/A,,Mostly Cloudy,140,2013-05-19 07:02:00
2:53 AM,72.0,70.0,93,30.00,10.0,Calm,Calm,-,N/A,,Overcast,0,2013-05-19 07:53:00
3:53 AM,72.0,70.0,93,30.01,10.0,South,4.6,-,N/A,,Overcast,170,2013-05-19 08:53:00
4:53 AM,72.0,70.0,93,30.02,10.0,South,4.6,-,N/A,,Overcast,180,2013-05-19 09:53:00
5:11 AM,71.6,69.8,94,30.03,10.0,South,4.6,-,N/A,,Overcast,180,2013-05-19 10:11:00
5:53 AM,72.0,70.0,93,30.03,10.0,SSE,3.5,-,N/A,,Overcast,160,2013-05-19 10:53:00
6:31 AM,73.4,69.8,88,30.03,10.0,SE,4.6,-,N/A,,Overcast,140,2013-05-19 11:31:00
7:53 AM,73.9,71.1,91,30.03,10.0,South,6.9,-,N/A,,Overcast,170,2013-05-19 12:53:00
8:40 AM,77.0,71.6,83,30.04,10.0,SSE,9.2,-,N/A,,Mostly Cloudy,160,2013-05-19 13:40:00
8:53 AM,77.0,71.1,82,30.03,10.0,South,8.1,-,N/A,,Mostly Cloudy,170,2013-05-19 13:53:00
9:04 AM,78.8,71.6,78,30.04,10.0,South,11.5,-,N/A,,Scattered Clouds,190,2013-05-19 14:04:00
9:53 AM,78.1,70.0,76,30.04,10.0,South,8.1,-,N/A,,Scattered Clouds,180,2013-05-19 14:53:00
10:10 AM,78.8,69.8,74,30.05,10.0,South,8.1,-,N/A,,Mostly Cloudy,190,2013-05-19 15:10:00
10:42 AM,80.6,69.8,70,30.05,10.0,SSW,6.9,-,N/A,,Scattered Clouds,200,2013-05-19 15:42:00
10:53 AM,80.1,70.0,71,30.04,10.0,South,4.6,-,N/A,,Partly Cloudy,190,2013-05-19 15:53:00
11:14 AM,80.6,71.6,74,30.04,10.0,South,9.2,-,N/A,,Mostly Cloudy,180,2013-05-19 16:14:00
11:23 AM,80.6,69.8,70,30.04,10.0,SSW,11.5,16.1,N/A,,Scattered Clouds,200,2013-05-19 16:23:00
11:53 AM,82.9,70.0,65,30.03,10.0,South,8.1,-,N/A,,Mostly Cloudy,180,2013-05-19 16:53:00
12:53 PM,82.9,68.0,60,30.02,10.0,South,10.4,17.3,N/A,,Partly Cloudy,180,2013-05-19 17:53:00
3:53 PM,84.9,69.1,59,29.98,10.0,South,9.2,-,N/A,,Clear,180,2013-05-19 20:53:00
4:53 PM,84.0,70.0,63,29.97,10.0,South,6.9,-,N/A,,Mostly Cloudy,190,2013-05-19 21:53:00
5:53 PM,82.9,71.1,67,29.96,10.0,SSE,4.6,-,N/A,,Clear,160,2013-05-19 22:53:00
6:53 PM,82.0,70.0,67,29.97,10.0,SSE,10.4,-,N/A,,Clear,160,2013-05-19 23:53:00
7:53 PM,79.0,71.1,77,29.99,10.0,SSE,6.9,-,N/A,,Scattered Clouds,150,2013-05-20 00:53:00
8:53 PM,77.0,71.1,82,30.00,10.0,SSE,4.6,-,N/A,,Clear,160,2013-05-20 01:53:00
9:53 PM,75.9,71.1,85,30.01,10.0,SSE,8.1,-,N/A,,Clear,160,2013-05-20 02:53:00
10:53 PM,75.0,72.0,90,30.01,10.0,South,8.1,-,N/A,,Mostly Cloudy,180,2013-05-20 03:53:00
11:21 PM,73.4,71.6,94,30.01,10.0,South,9.2,-,N/A,,Scattered Clouds,180,2013-05-20 04:21:00
11:40 PM,73.4,71.6,94,30.01,10.0,SSE,5.8,-,N/A,,Mostly Cloudy,160,2013-05-20 04:40:00
11:53 PM,73.9,72.0,93,30.01,10.0,SSE,6.9,-,N/A,,Overcast,150,2013-05-20 04:53:00